Regional Weather Roundup
Issued by NWS Mt. Holly, NJ

Current Version | Previous Version | Text Only | Print | Product List | Glossary On
Versions: 1 2 3 4 5 6 7 8 9 10 11 12 13 14 15 16 17 18 19 20 21 22 23 24 25 26 27 28
000
ASUS41 KPHI 311410
RWRPHI

REGIONAL WEATHER ROUNDUP
NATIONAL WEATHER SERVICE MOUNT HOLLY NJ
1000 AM EDT FRI OCT 31 2014

NOTE:  "FAIR" INDICATES FEW OR NO CLOUDS BELOW 12,000 FEET WITH NO
SIGNIFICANT WEATHER AND/OR OBSTRUCTIONS TO VISIBILITY.

 * = STATION DOES NOT REPORT PRECIPITATION (E.G. RAIN, SNOW, ETC.)
        OR FOG.

NJZ015>026-311500-
SOUTHERN NEW JERSEY

CITY           SKY/WX    TMP DP  RH WIND       PRES   REMARKS
POMONA         CLOUDY    46  39  76 N9        29.98F
RIO GRANDE*    CLOUDY    46  36  66 N9        29.98F
MILLVILLE      CLOUDY    44  38  79 N5        29.99F
WRIGHTSTOWN    CLOUDY    44  38  80 N7        29.97F
MOUNT HOLLY    CLOUDY    43  37  79 N5        30.00F
TRENTON        MOSUNNY   44  35  70 N6        30.00F

$$
NJZ001>014-311500-
NORTHERN NEW JERSEY

CITY           SKY/WX    TMP DP  RH WIND       PRES   REMARKS
SUSSEX         SUNNY     41  35  79 CALM      30.02F
ANDOVER*         N/A     40  36  86 NE7       30.01F
MORRISTOWN     PTSUNNY   45  41  87 CALM      30.07R
NEWARK         PTSUNNY   47  37  68 N10       30.01F
TETERBORO      CLOUDY    46  35  65 N6        30.01F
CALDWELL       CLOUDY    43  35  73 N3        30.02F
SOMERVILLE     CLOUDY    37  34  89 CALM      30.00F
ALLAIRE*       CLOUDY    46  36  66 N8        29.99F
TOMS RIVER*    CLOUDY    45  39  81 N3        29.98F

$$
PAZ043-044-047-054-055-060>062-066>071-311500-
EASTERN PENNSYLVANIA

CITY           SKY/WX    TMP DP  RH WIND       PRES   REMARKS
PHILADELPHIA   PTSUNNY   49  36  61 NE8       30.00F
NORTH PHILA    MOSUNNY   48  35  60 NE10      30.01F
BLUE BELL      SUNNY     41  37  87 CALM      30.00F
DOYLESTOWN     MOSUNNY   41  35  79 N6        30.00F
QUAKERTOWN*    SUNNY     43  36  75 NE3       30.01F
POTTSTOWN      SUNNY     43  34  70 NE5       30.02F
LANCASTER      CLOUDY    46  33  60 E7        30.00F
COATESVILLE    MOSUNNY   45  34  65 NE5       30.00F
READING        SUNNY     42  35  76 CALM      30.01F
ALLENTOWN      SUNNY     42  33  70 CALM      30.02F
MOUNT POCONO   SUNNY     42  30  62 E7        29.97F
HAZLETON       SUNNY     41  32  70 E5        30.00F
WILKES BARRE   MOSUNNY   41  32  70 N5        30.00F

$$
DEZALL-MDZ008-012-015-019-020-311500-
DELAWARE AND EASTERN MARYLAND

CITY           SKY/WX    TMP DP  RH WIND       PRES   REMARKS
WILMINGTON     MOSUNNY   48  37  65 NE8       30.01F
DOVER          CLOUDY    48  41  75 N8        29.97S
GEORGETOWN     CLOUDY    50  40  68 NE7       29.98F
EASTON         CLOUDY    50  39  66 E9        30.02F
PATUXENT       CLOUDY    51  40  65 E10       29.97F
OCEAN CITY     CLOUDY    52  42  69 N8        29.95F
WALLOPS ISLAND CLOUDY    50  40  68 NE9       29.95F
CAMBRIDGE      CLOUDY    52  37  58 NE5       29.98F
SALISBURY      CLOUDY    50  41  71 NE6       29.97F

$$
PAZ001-021-NYZ056-072-MDZ011-DCZ001-311500-
OTHER NEARBY LOCATIONS

CITY           SKY/WX    TMP DP  RH WIND       PRES   REMARKS
HARRISBURG     CLOUDY    47  35  63 E6        30.00F
STATE COLLEGE  CLOUDY    41  36  81 VRB3      29.98S
WILLIAMSPORT   CLOUDY    41  34  76 CALM      30.00F
BINGHAMTON     MOSUNNY   37  33  85 SE7       29.99S WCI  32
NEW YORK CITY  CLOUDY    49  32  52 VRB3      30.03F
BALTIMORE      CLOUDY    50  38  63 E9        29.99F
WASHINGTON DC  CLOUDY    51  40  65 NE3       30.00F

$$



USA.gov is the U.S. government's official web portal to all federal, state and local government web resources and services.